Regional Weather Roundup
Issued by NWS

Home | Current Version | Previous Version | Graphics & Text | Print | Product List | Glossary On
Versions: 1 2 3 4 5 6 7 8 9 10 11 12 13 14 15 16 17 18 19 20 21 22 23 24 25 26 27 28 29 30 31 32 33 34 35 36 37 38 39 40 41 42 43 44 45 46 47 48 49 50
000
ASUS43 KFSD 011110
RWRSD

WEATHER ROUNDUP FOR SOUTH DAKOTA
NATIONAL WEATHER SERVICE SIOUX FALLS SD
600 AM CDT WED OCT 01 2014

NOTE: "FAIR" INDICATES FEW OR NO CLOUDS BELOW 12,000 FEET WITH NO
SIGNIFICANT WEATHER AND/OR OBSTRUCTIONS TO VISIBILITY.


SDZ001>005-009-010-012>017-011200-
NORTHWEST AND NORTH CENTRAL SOUTH DAKOTA

CITY           SKY/WX    TMP DP  RH WIND       PRES   REMARKS
BUFFALO          N/A     52  49  89 W18       29.66R
FAITH            N/A     52  48  86 W14       29.70R
MOBRIDGE       PTCLDY    53  50  89 SW5       29.63R
$$

SDZ012>016-024>037-041>051-057-063-072>074-011200-
SOUTHWEST AND SOUTH CENTRAL SOUTH DAKOTA

CITY           SKY/WX    TMP DP  RH WIND       PRES   REMARKS
RAPID CTY ARPT MOCLDY    50  45  83 W6        29.76S
PIERRE         CLOUDY    54  47  77 SW6       29.68R
CUSTER         CLOUDY    44  40  85 W6        29.83R
ELLSWORTH AFB  MOCLDY    54  47  77 W8        29.75S
PHILIP         MOCLDY    50  45  83 W5        29.73R
PINE RIDGE     CLEAR     45  43  93 CALM      29.79R
WINNER         FAIR      53  47  79 CALM      29.71S
$$

SDZ004>011-016>023-039-040-011200-
NORTHEAST SOUTH DAKOTA

CITY           SKY/WX    TMP DP  RH WIND       PRES   REMARKS
ABERDEEN       MOCLDY    55  52  89 S7        29.66S
WATERTOWN      CLOUDY    61  59  93 S7        29.69S
SISSETON         N/A     60  58  92 SW8       29.65S
$$

SDZ017-020-022-023-036>040-048>070-011200-
SOUTHEAST SOUTH DAKOTA

CITY           SKY/WX    TMP DP  RH WIND       PRES   REMARKS
SIOUX FALLS    CLOUDY    63  61  93 S9        29.71S
HURON          CLOUDY    61  59  93 S7        29.68R
CHAMBERLAIN    CLOUDY    53  49  89 CALM      29.70S
MITCHELL       CLOUDY    62  60  93 CALM      29.70S
YANKTON        CLOUDY    64  61  88 S7        29.72R
$$

ABBREVIATIONS USED IN REMARKS
   TC - TEMPERATURE IN CELSIUS
  WCI - WIND CHILL INDEX
   HX - HEAT INDEX
  VSB - VISIBILITY



USA.gov is the U.S. government's official web portal to all federal, state and local government web resources and services.